Regional Weather Roundup
Issued by NWS

Home | Current Version | Previous Version | Text Only | Print | Product List | Glossary Off
Versions: 1 2 3 4 5 6 7 8 9 10 11 12 13 14 15 16 17 18 19 20 21 22 23 24 25 26 27 28 29 30 31 32 33 34 35 36 37 38 39 40 41 42 43 44 45 46 47 48 49 50

000
ASUS43 KMPX 281301
RWRMN
WEATHER ROUNDUP FOR MINNESOTA
NATIONAL WEATHER SERVICE TWIN CITIES/CHANHASSEN MN
700 AM CST FRI NOV 28 2014


NOTE: "FAIR" INDICATES FEW OR NO CLOUDS BELOW 12,000 FEET WITH NO
SIGNIFICANT WEATHER AND/OR OBSTRUCTIONS TO VISIBILITY. N/A MEANS
CURRENT SKY AND/OR WEATHER CONDITIONS ARE NOT AVAILABLE.

MNZ060>063-068>070-281400-
   Twin Cities Metro

CITY           SKY/WX    TMP DP  RH WIND       PRES   REMARKS
TWIN CITIES    CLOUDY    13   7  77 SE9       30.03F WCI   1
ST PAUL        CLOUDY    14   8  77 SE9       30.05F WCI   2
CRYSTAL        CLOUDY    14   8  77 E8        30.02F WCI   3
BLAINE         CLOUDY    16  10  79 E8        30.02F WCI   5
LAKEVILLE      CLOUDY    12   7  79 SE5       30.01F WCI   4
EDEN PRAIRIE   CLOUDY    13   8  81 SE7       30.01F WCI   3
SOUTH ST PAUL  CLOUDY    15   9  76 SE3       30.04F
LAKE ELMO      CLOUDY    14  10  85 SE5       30.04F WCI   6
$$
MNZ001>005-007-008-013>017-022>024-027-028-281400-
   Northwest Minnesota

CITY           SKY/WX    TMP DP  RH WIND       PRES   REMARKS
BEMIDJI        CLOUDY     8   4  82 E5        29.97F WCI   0
HALLOCK        LGT SNOW  10   7  85 E6        30.01F WCI   1
ROSEAU         CLOUDY     9   3  78 E5        30.02F WCI   0
WARROAD        CLOUDY     7   1  78 E6        30.02F WCI  -3
THIEF RVR FALL CLOUDY    10   5  79 E8        29.99S WCI  -1
CROOKSTON      CLOUDY    12   7  79 SE6       30.00R WCI   3
FOSSTON        CLOUDY     9   3  78 E5        29.96F WCI   0
DETROIT LAKES  CLOUDY    10   5  79 SE12      29.94F WCI  -4
MOORHEAD       MIX PCPN  12  10  92 SE5       29.97F WCI   4
PARK RAPIDS    CLOUDY     8   4  83 SE7       29.95F WCI  -3
MAHNOMEN       CLOUDY    10   4  78 SE8       29.96F WCI  -3
$$
MNZ006-009>011-018-025>026-281400-
   North Central Minnesota

CITY           SKY/WX    TMP DP  RH WIND       PRES   REMARKS
BAUDETTE       MOCLDY     6  -1  73 E6        30.02S WCI  -4
FLAG ISLAND    PTCLDY     1  -2  85 E5        30.03F WCI  -8
INTL FALLS     PTCLDY     5  -1  76 E5        30.03F WCI  -4
WASKISH        FLURRIES   9   5  85 CALM      30.02S
BIG FORK       FLURRIES   9   3  78 CALM      30.02S
LONGVILLE      LGT SNOW   9   5  85 E3        29.98F
GRAND RAPIDS   CLOUDY     7   1  78 SE5       29.99F WCI  -2
CRANE LAKE     CLOUDY     5   0  78 CALM      30.07F
ORR            FLURRIES   7   0  72 CALM      30.01F
COOK           FLURRIES   7   1  78 CALM      30.03F
WALKER         FLURRIES   8   4  84 SE5       29.98F WCI  -1
$$
MNZ012-019>021-037-281400-
   Northeast Minnesota

CITY           SKY/WX    TMP DP  RH WIND       PRES   REMARKS
DULUTH         LGT SNOW   8   4  83 SE8       30.03F WCI  -4
ELY            FLURRIES   7   0  72 CALM      30.04S
HIBBING        CLOUDY     8   1  73 SE6       30.03S WCI  -2
EVELETH        FLURRIES   9   3  78 CALM      30.04R
DULUTH HARBOR  FLURRIES  10   5  79 CALM      30.11F
TWO HARBORS    LGT SNOW  12   7  79 CALM      30.04F
SILVER BAY     LGT SNOW  12   5  73 CALM      30.05F
GRAND MARAIS     N/A     15   8  73 NW3       30.12F
G MARAIS ARPRT CLOUDY     7   1  78 CALM      30.02F
$$
MNZ029>031-032-039>041-046>048-054>057-064-281400-
   West Central Minnesota

CITY           SKY/WX    TMP DP  RH WIND       PRES   REMARKS
FERGUS FALLS   PTCLDY     9   1  72 SE7       29.97F WCI  -3
WHEATON        PTCLDY     7   1  78 E8        29.96F WCI  -6
MORRIS         PTCLDY     9   3  78 SE12      29.93F WCI  -6
ALEXANDRIA     MOCLDY     9   4  80 SE9       29.95S WCI  -4
ELBOW LAKE     FAIR      10   4  78 SE8       29.94F WCI  -2
WADENA         FLURRIES   7   3  85 E8        29.96R WCI  -6
GLENWOOD       MOCLDY     9   5  85 E8        29.96R WCI  -4
APPLETON       PTCLDY     9   3  78 E10       29.94S WCI  -6
BENSON         PTCLDY     9   3  78 SE8       29.95R WCI  -4
ORTONVILLE     PTCLDY     9   1  72 E9        29.92S WCI  -5
MADISON        MOCLDY    12   7  79 E9        29.92F WCI   0
WILLMAR        FAIR      10   3  72 E10       29.96R WCI  -3
$$
MNZ033>034-036-042>043-049>051-058-059-281400-
   Central Minnesota

CITY           SKY/WX    TMP DP  RH WIND       PRES   REMARKS
ST CLOUD       CLOUDY    11   5  77 E6        29.99F WCI   1
SAUK CENTRE    CLOUDY    10   5  82 SE7       29.97R WCI  -2
PAYNESVILLE    CLOUDY     8   5  87 E6        29.97S WCI  -2
AITKIN         LGT SNOW  10   5  79 E5        29.99F WCI   2
PINE RIVER     LGT SNOW   9   5  85 E6        30.01F WCI  -1
BRAINERD       LGT SNOW   8   5  87 VRB5      29.97F FOG     WCI   0
STAPLES        FLURRIES   9   3  78 SE5       29.96F WCI   0
LONG PRAIRIE   FLURRIES   9   5  85 E5        29.97S WCI   0
LITTLE FALLS   LGT SNOW  10   5  79 E8        29.98F WCI  -1
LITCHFIELD     PTCLDY    10   7  85 SE9       29.97S WCI  -2
BUFFALO        CLOUDY    13   8  79 E8        30.01F WCI   2
MAPLE LAKE     CLOUDY    14   9  83 E7        30.00F WCI   3
$$
MNZ037-044-045-052-053-281400-
   East Central Minnesota

CITY           SKY/WX    TMP DP  RH WIND       PRES   REMARKS
PRINCETON      FLURRIES  10   7  85 CALM      30.01F
MORA             N/A    N/A N/A N/A MISG        N/A
CAMBRIDGE      FLURRIES  12   5  73 E3        30.01F
RUSH CITY      CLOUDY    11   7  84 CALM      30.04F
MOOSE LAKE     LGT SNOW  10   7  85 E3        30.04R
HINCKLEY       FLURRIES  10   9  92 CALM      30.05F
CLOQUET        LGT SNOW   7   3  85 SE3       30.04S
MCGREGOR       CLOUDY    10   9  92 E6        30.02F WCI   1
$$
MNZ071>073-080-081-089-090-097-098-281400-
   Southwest Minnesota

CITY           SKY/WX    TMP DP  RH WIND       PRES   REMARKS
MONTEVIDEO     PTCLDY     9   5  85 SE9       29.94S WCI  -5
GRANITE FALLS  PTCLDY    10   5  81 E6        29.94F WCI   0
CANBY          MOCLDY    10   7  88 SE7       29.89F WCI  -1
MARSHALL       MOCLDY    10   3  72 SE9       29.88F WCI  -2
REDWOOD FALLS  PTCLDY    11   5  77 SE9       29.94F WCI  -2
OLIVIA         CLEAR     10   5  79 E8        29.94F WCI  -1
PIPESTONE      CLOUDY    16  14  93 SE8       29.82F WCI   5
WINDOM         PTCLDY    10   9  92 CALM      29.90
WORTHINGTON    CLOUDY    12  10  92 SE6       29.87S WCI   3
JACKSON        MOCLDY    14  10  85 SE6       29.90S WCI   5
TRACY          MOCLDY    12   9  86 SE3       29.89F
SLAYTON        MOCLDY    11  10  94 SE7       29.86F WCI   1
$$
MNZ065>067-074>077-082>085-091>093-281400-
   South Central Minnesota

CITY           SKY/WX    TMP DP  RH WIND       PRES   REMARKS
MANKATO        PTCLDY    10   3  72 SE10      29.96F WCI  -3
NEW ULM        MOCLDY    10   7  85 SE6       29.96S WCI   1
ST JAMES       PTCLDY    12   9  85 SE6       29.96S WCI   3
FAIRMONT       PTCLDY    12   9  85 SE10      29.92F WCI  -1
GLENCOE        PTCLDY    10   7  87 E7        29.97F WCI  -1
FARIBAULT      FAIR      14   7  73 SE7       30.00F WCI   4
OWATONNA       PTCLDY    14   7  73 SE14      29.98S WCI  -1
WASECA         PTCLDY    14   5  67 SE13      29.99F WCI   0
ALBERT LEA     PTCLDY    12   7  79 S13       29.98S WCI  -3
$$
MNZ078>079-086>088-094>096-281400-
   Southeast Minnesota

CITY           SKY/WX    TMP DP  RH WIND       PRES   REMARKS
ROCHESTER      PTCLDY    14   7  73 S21       30.00F WCI  -4
RED WING       CLOUDY    16   9  73 SE8       30.05S WCI   5
STANTON        CLOUDY    17   9  71 S7        30.00F WCI   7
DODGE CENTER   PTCLDY    12   9  85 S14       29.98S WCI  -3
WINONA         CLOUDY    18  12  79 SE13      30.07F WCI   4
AUSTIN         PTCLDY    14   7  73 S8        30.00S WCI   3
PRESTON        MOCLDY    14   8  76 SE13      30.02F WCI   0
$$
ABBREVIATIONS USED IN REMARKS
   TC - TEMPERATURES IN CELSIUS
  WCI - WIND CHILL INDEX
   HX - HEAT INDEX
  VSB - VISIBILITY
$$


USA.gov is the U.S. government's official web portal to all federal, state and local government web resources and services.